ARG1622 SABE-SAZB

Flight info

Callsign ARG1622
Flight time 1h 0m
Altitude 38000
Route PTA8 GBE UT694 XODIK UW18 MOXAN MOXAN2U
Aircraft B738/M-SDE2E3FGHIRWXY/LB1

Departure

Time 2026-05-07 00:03
Airport Aeroparque Jorge Newbery (SABE)

Arrival

Time 2026-05-07 01:03
Airport Comandante Espora Airport (SAZB)
Time Latitude Longitude Altitude Speed Heading
2026-05-06 23:24 -34.55706 -58.41443 26 ft 0 kts 15°
2026-05-06 23:54 -34.55721 -58.41448 32 ft 2 kts 12°
2026-05-06 23:55 -34.55737 -58.41450 31 ft 2 kts 353°
2026-05-06 23:55 -34.55751 -58.41442 31 ft 2 kts 302°
2026-05-06 23:55 -34.55754 -58.41435 30 ft 0 kts 299°
2026-05-06 23:57 -34.55752 -58.41439 30 ft 3 kts 299°
2026-05-06 23:57 -34.55729 -58.41490 30 ft 7 kts 299°
2026-05-06 23:58 -34.55733 -58.41549 26 ft 8 kts 236°
2026-05-06 23:58 -34.55775 -58.41587 30 ft 7 kts 195°
2026-05-06 23:58 -34.55817 -58.41553 28 ft 9 kts 120°
2026-05-06 23:58 -34.55857 -58.41459 28 ft 15 kts 117°
2026-05-06 23:59 -34.55904 -58.41348 26 ft 15 kts 117°
2026-05-06 23:59 -34.55956 -58.41245 27 ft 14 kts 125°
2026-05-06 23:59 -34.56012 -58.41152 29 ft 13 kts 127°
2026-05-06 23:59 -34.56048 -58.41093 27 ft 13 kts 127°
2026-05-07 00:00 -34.56121 -58.40979 31 ft 13 kts 130°
2026-05-07 00:00 -34.56158 -58.40902 28 ft 4 kts 109°
2026-05-07 00:00 -34.56155 -58.40864 26 ft 6 kts 81°
2026-05-07 00:00 -34.56166 -58.40827 28 ft 8 kts 121°
2026-05-07 00:01 -34.56215 -58.40739 29 ft 12 kts 124°
2026-05-07 00:01 -34.56266 -58.40648 28 ft 13 kts 124°
2026-05-07 00:01 -34.56317 -58.40558 28 ft 13 kts 124°
2026-05-07 00:01 -34.56377 -58.40481 27 ft 13 kts 138°
2026-05-07 00:02 -34.56466 -58.40389 29 ft 20 kts 140°
2026-05-07 00:02 -34.56563 -58.40408 25 ft 8 kts 242°
2026-05-07 00:02 -34.56532 -58.40484 28 ft 28 kts 303°
2026-05-07 00:02 -34.56238 -58.41010 29 ft 120 kts 304°
2026-05-07 00:03 -34.55637 -58.42110 196 ft 184 kts 307°
2026-05-07 00:03 -34.54870 -58.43477 896 ft 204 kts 308°
2026-05-07 00:03 -34.54059 -58.44601 2520 ft 163 kts 332°
2026-05-07 00:03 -34.52928 -58.44734 3263 ft 184 kts
2026-05-07 00:04 -34.51699 -58.43855 3533 ft 221 kts 27°
2026-05-07 00:04 -34.50647 -58.42329 4058 ft 253 kts 52°
2026-05-07 00:04 -34.50098 -58.40229 4567 ft 275 kts 75°
2026-05-07 00:04 -34.50319 -58.37857 4640 ft 291 kts 99°
2026-05-07 00:05 -34.50901 -58.35488 4626 ft 295 kts 102°
2026-05-07 00:05 -34.51526 -58.33036 4613 ft 311 kts 102°
2026-05-07 00:05 -34.52415 -58.30618 4623 ft 321 kts 126°
2026-05-07 00:05 -34.54063 -58.28851 4660 ft 322 kts 145°
2026-05-07 00:06 -34.55899 -58.27256 4822 ft 328 kts 146°
2026-05-07 00:06 -34.57763 -58.25644 5754 ft 328 kts 146°
2026-05-07 00:06 -34.59618 -58.24026 6778 ft 329 kts 145°
2026-05-07 00:06 -34.61475 -58.22390 7738 ft 330 kts 144°
2026-05-07 00:07 -34.63353 -58.20770 8662 ft 333 kts 152°
2026-05-07 00:07 -34.65540 -58.19948 9534 ft 329 kts 183°
2026-05-07 00:07 -34.67782 -58.20278 10245 ft 330 kts 197°
2026-05-07 00:07 -34.70121 -58.20861 10502 ft 355 kts 198°
2026-05-07 00:08 -34.71741 -58.21282 10858 ft 363 kts 198°
2026-05-07 00:08 -34.75042 -58.22129 11943 ft 367 kts 198°
2026-05-07 00:08 -34.77551 -58.22756 12788 ft 369 kts 198°
2026-05-07 00:08 -34.80079 -58.23379 13586 ft 372 kts 198°
2026-05-07 00:09 -34.82636 -58.24003 14252 ft 377 kts 197°
2026-05-07 00:09 -34.85222 -58.24630 14935 ft 381 kts 198°
2026-05-07 00:09 -34.87835 -58.25261 15651 ft 385 kts 198°
2026-05-07 00:09 -34.89581 -58.25682 16114 ft 387 kts 198°
2026-05-07 00:10 -34.92241 -58.26323 16800 ft 392 kts 198°
2026-05-07 00:10 -34.94926 -58.26970 17505 ft 395 kts 198°
2026-05-07 00:10 -34.97636 -58.27623 18172 ft 399 kts 198°
2026-05-07 00:10 -35.00372 -58.28282 18806 ft 402 kts 198°
2026-05-07 00:11 -35.03123 -58.28945 19462 ft 404 kts 198°
2026-05-07 00:11 -35.05894 -58.29614 20113 ft 407 kts 198°
2026-05-07 00:11 -35.08682 -58.30288 20720 ft 411 kts 198°
2026-05-07 00:11 -35.11500 -58.30970 21325 ft 414 kts 198°
2026-05-07 00:12 -35.14336 -58.31656 21938 ft 417 kts 198°
2026-05-07 00:12 -35.17159 -58.32340 22519 ft 421 kts 198°
2026-05-07 00:12 -35.20042 -58.33039 23101 ft 424 kts 198°
2026-05-07 00:12 -35.22950 -58.33744 23595 ft 427 kts 199°
2026-05-07 00:13 -35.25869 -58.34452 24119 ft 428 kts 199°
2026-05-07 00:13 -35.28796 -58.35162 24643 ft 430 kts 199°
2026-05-07 00:13 -35.31729 -58.35873 25164 ft 431 kts 199°
2026-05-07 00:13 -35.34682 -58.36592 25638 ft 433 kts 199°
2026-05-07 00:14 -35.37647 -58.37314 26124 ft 436 kts 199°
2026-05-07 00:14 -35.40630 -58.38041 26572 ft 438 kts 198°
2026-05-07 00:14 -35.43628 -58.38772 26998 ft 441 kts 198°
2026-05-07 00:14 -35.46645 -58.39509 27410 ft 444 kts 198°
2026-05-07 00:15 -35.49683 -58.40250 27870 ft 445 kts 198°
2026-05-07 00:15 -35.52689 -58.40984 28304 ft 448 kts 198°
2026-05-07 00:15 -35.55751 -58.41733 28704 ft 450 kts 198°
2026-05-07 00:15 -35.58832 -58.42487 29097 ft 453 kts 198°
2026-05-07 00:16 -35.61931 -58.43246 29441 ft 456 kts 198°
2026-05-07 00:16 -35.65058 -58.44013 29759 ft 460 kts 198°
2026-05-07 00:16 -35.68208 -58.44785 30024 ft 463 kts 198°
2026-05-07 00:16 -35.71367 -58.45560 30323 ft 466 kts 198°
2026-05-07 00:17 -35.74486 -58.46582 30573 ft 462 kts 206°
2026-05-07 00:17 -35.77421 -58.48136 30830 ft 457 kts 215°
2026-05-07 00:17 -35.80133 -58.50148 31126 ft 455 kts 218°
2026-05-07 00:17 -35.82809 -58.52238 31440 ft 456 kts 219°
2026-05-07 00:18 -35.85481 -58.54346 31810 ft 455 kts 219°
2026-05-07 00:18 -35.88114 -58.56418 32180 ft 455 kts 219°
2026-05-07 00:18 -35.90790 -58.58512 32509 ft 456 kts 218°
2026-05-07 00:18 -35.93478 -58.60603 32823 ft 457 kts 218°
2026-05-07 00:19 -35.96174 -58.62691 33142 ft 458 kts 218°
2026-05-07 00:19 -35.98880 -58.64782 33453 ft 459 kts 218°
2026-05-07 00:19 -36.01594 -58.66879 33743 ft 460 kts 218°
2026-05-07 00:19 -36.04312 -58.68979 33986 ft 462 kts 218°
2026-05-07 00:20 -36.07037 -58.71086 34222 ft 463 kts 218°
2026-05-07 00:20 -36.09777 -58.73207 34477 ft 464 kts 218°
2026-05-07 00:20 -36.12518 -58.75330 34743 ft 465 kts 218°
2026-05-07 00:20 -36.15258 -58.77454 35017 ft 465 kts 218°
2026-05-07 00:21 -36.17959 -58.79551 35270 ft 466 kts 218°
2026-05-07 00:21 -36.20709 -58.81687 35513 ft 467 kts 218°
2026-05-07 00:21 -36.23462 -58.83828 35769 ft 467 kts 218°
2026-05-07 00:21 -36.26215 -58.85971 36024 ft 468 kts 218°
2026-05-07 00:22 -36.28971 -58.88117 36270 ft 468 kts 218°
2026-05-07 00:22 -36.31730 -58.90268 36503 ft 469 kts 218°
2026-05-07 00:22 -36.34497 -58.92427 36737 ft 470 kts 218°
2026-05-07 00:22 -36.37261 -58.94585 36995 ft 470 kts 218°
2026-05-07 00:23 -36.40025 -58.96745 37266 ft 469 kts 218°
2026-05-07 00:23 -36.42791 -58.98908 37493 ft 470 kts 218°
2026-05-07 00:23 -36.45559 -59.01076 37672 ft 471 kts 218°
2026-05-07 00:23 -36.48346 -59.03262 37662 ft 475 kts 218°
2026-05-07 00:24 -36.53898 -59.07617 37672 ft 473 kts 218°
2026-05-07 00:24 -36.59442 -59.11970 37664 ft 470 kts 218°
2026-05-07 00:25 -36.64950 -59.16305 37666 ft 467 kts 218°
2026-05-07 00:25 -36.70436 -59.20633 37667 ft 466 kts 218°
2026-05-07 00:26 -36.75914 -59.24963 37674 ft 467 kts 218°
2026-05-07 00:26 -36.81368 -59.29280 37675 ft 468 kts 219°
2026-05-07 00:27 -36.86879 -59.33651 37681 ft 470 kts 219°
2026-05-07 00:27 -36.92416 -59.38048 37674 ft 473 kts 219°
2026-05-07 00:28 -36.97984 -59.42477 37676 ft 475 kts 219°
2026-05-07 00:28 -37.03569 -59.46929 37670 ft 477 kts 219°
2026-05-07 00:29 -37.06170 -59.49434 37650 ft 468 kts 230°
2026-05-07 00:29 -37.08353 -59.52338 37670 ft 459 kts 240°
2026-05-07 00:30 -37.15761 -59.65273 37681 ft 458 kts 242°
2026-05-07 00:30 -37.19506 -59.71786 37143 ft 464 kts 241°
2026-05-07 00:31 -37.21393 -59.75054 36613 ft 461 kts 241°
2026-05-07 00:31 -37.23272 -59.78302 36079 ft 459 kts 241°
2026-05-07 00:31 -37.25139 -59.81527 35689 ft 454 kts 241°
2026-05-07 00:31 -37.26987 -59.84722 35264 ft 450 kts 241°
2026-05-07 00:32 -37.28812 -59.87885 34847 ft 446 kts 241°
2026-05-07 00:32 -37.30621 -59.91026 34435 ft 442 kts 241°
2026-05-07 00:32 -37.32390 -59.94100 34033 ft 439 kts 241°
2026-05-07 00:32 -37.34170 -59.97200 33624 ft 435 kts 241°
2026-05-07 00:33 -37.35933 -60.00271 33156 ft 432 kts 242°
2026-05-07 00:33 -37.37680 -60.03316 32719 ft 428 kts 242°
2026-05-07 00:33 -37.39411 -60.06338 32315 ft 424 kts 242°
2026-05-07 00:33 -37.41124 -60.09329 31914 ft 419 kts 242°
2026-05-07 00:34 -37.42819 -60.12292 31526 ft 415 kts 242°
2026-05-07 00:34 -37.44495 -60.15225 31137 ft 411 kts 243°
2026-05-07 00:34 -37.46158 -60.18137 30753 ft 407 kts 243°
2026-05-07 00:34 -37.47780 -60.20981 30374 ft 404 kts 243°
2026-05-07 00:35 -37.49408 -60.23837 30007 ft 400 kts 244°
2026-05-07 00:35 -37.51023 -60.26673 29616 ft 397 kts 244°
2026-05-07 00:35 -37.52607 -60.29457 29190 ft 393 kts 244°
2026-05-07 00:35 -37.54186 -60.32235 28804 ft 388 kts 244°
2026-05-07 00:36 -37.55746 -60.34980 28414 ft 383 kts 244°
2026-05-07 00:36 -37.57288 -60.37696 28014 ft 379 kts 244°
2026-05-07 00:36 -37.58813 -60.40385 27630 ft 375 kts 244°
2026-05-07 00:36 -37.60321 -60.43048 27258 ft 371 kts 244°
2026-05-07 00:37 -37.61817 -60.45690 26879 ft 368 kts 245°
2026-05-07 00:37 -37.63298 -60.48310 26504 ft 365 kts 245°
2026-05-07 00:37 -37.64746 -60.50874 26137 ft 362 kts 245°
2026-05-07 00:37 -37.66202 -60.53453 25773 ft 360 kts 245°
2026-05-07 00:38 -37.67649 -60.56018 25413 ft 357 kts 245°
2026-05-07 00:38 -37.69085 -60.58567 25039 ft 356 kts 245°
2026-05-07 00:38 -37.70512 -60.61100 24687 ft 353 kts 245°
2026-05-07 00:38 -37.71933 -60.63624 24335 ft 351 kts 245°
2026-05-07 00:39 -37.73345 -60.66135 23984 ft 350 kts 245°
2026-05-07 00:39 -37.74750 -60.68635 23631 ft 348 kts 245°
2026-05-07 00:39 -37.76132 -60.71098 23266 ft 348 kts 245°
2026-05-07 00:39 -37.77527 -60.73584 22855 ft 346 kts 245°
2026-05-07 00:40 -37.78916 -60.76062 22483 ft 344 kts 245°
2026-05-07 00:40 -37.80295 -60.78521 22099 ft 342 kts 245°
2026-05-07 00:40 -37.81663 -60.80961 21750 ft 339 kts 244°
2026-05-07 00:40 -37.83020 -60.83384 21410 ft 336 kts 244°
2026-05-07 00:41 -37.84365 -60.85789 21056 ft 334 kts 244°
2026-05-07 00:41 -37.85701 -60.88179 20715 ft 331 kts 244°
2026-05-07 00:41 -37.87025 -60.90550 20378 ft 329 kts 244°
2026-05-07 00:41 -37.88340 -60.92906 20044 ft 327 kts 243°
2026-05-07 00:42 -37.89646 -60.95248 19707 ft 324 kts 243°
2026-05-07 00:42 -37.90925 -60.97545 19380 ft 322 kts 243°
2026-05-07 00:42 -37.92212 -60.99856 19050 ft 320 kts 243°
2026-05-07 00:42 -37.93492 -61.02156 18727 ft 318 kts 243°
2026-05-07 00:43 -37.94763 -61.04444 18401 ft 317 kts 243°
2026-05-07 00:43 -37.96027 -61.06719 18074 ft 315 kts 243°
2026-05-07 00:43 -37.97286 -61.08986 17716 ft 313 kts 242°
2026-05-07 00:43 -37.98536 -61.11239 17358 ft 312 kts 242°
2026-05-07 00:44 -37.99777 -61.13477 17037 ft 309 kts 242°
2026-05-07 00:44 -38.01007 -61.15695 16705 ft 306 kts 242°
2026-05-07 00:44 -38.02226 -61.17897 16385 ft 304 kts 241°
2026-05-07 00:44 -38.03417 -61.20050 16066 ft 302 kts 241°
2026-05-07 00:45 -38.04617 -61.22220 15751 ft 299 kts 240°
2026-05-07 00:45 -38.05809 -61.24377 15438 ft 297 kts 240°
2026-05-07 00:45 -38.06993 -61.26520 15126 ft 296 kts 240°
2026-05-07 00:45 -38.08168 -61.28649 14815 ft 294 kts 239°
2026-05-07 00:46 -38.09335 -61.30767 14510 ft 292 kts 239°
2026-05-07 00:46 -38.10497 -61.32874 14204 ft 290 kts 238°
2026-05-07 00:46 -38.11651 -61.34970 13903 ft 289 kts 238°
2026-05-07 00:46 -38.12797 -61.37053 13602 ft 287 kts 237°
2026-05-07 00:47 -38.13940 -61.39131 13280 ft 286 kts 237°
2026-05-07 00:47 -38.15061 -61.41168 12957 ft 284 kts 237°
2026-05-07 00:47 -38.16184 -61.43210 12658 ft 281 kts 236°
2026-05-07 00:47 -38.17297 -61.45237 12375 ft 278 kts 236°
2026-05-07 00:48 -38.18397 -61.47241 12090 ft 275 kts 236°
2026-05-07 00:48 -38.19487 -61.49227 11794 ft 272 kts 236°
2026-05-07 00:48 -38.20566 -61.51195 11501 ft 270 kts 236°
2026-05-07 00:48 -38.21635 -61.53146 11216 ft 268 kts 236°
2026-05-07 00:49 -38.22687 -61.55067 10920 ft 267 kts 236°
2026-05-07 00:49 -38.23742 -61.56996 10645 ft 264 kts 236°
2026-05-07 00:49 -38.24790 -61.58911 10363 ft 263 kts 236°
2026-05-07 00:49 -38.25828 -61.60811 10084 ft 261 kts 236°
2026-05-07 00:50 -38.26844 -61.62670 9877 ft 256 kts 236°
2026-05-07 00:50 -38.27843 -61.64499 9773 ft 248 kts 236°
2026-05-07 00:50 -38.28810 -61.66272 9612 ft 243 kts 236°
2026-05-07 00:50 -38.29783 -61.68056 9359 ft 247 kts 236°
2026-05-07 00:51 -38.30776 -61.69878 9080 ft 254 kts 236°
2026-05-07 00:51 -38.31793 -61.71746 8803 ft 259 kts 236°
2026-05-07 00:51 -38.32817 -61.73626 8523 ft 257 kts 235°
2026-05-07 00:51 -38.33830 -61.75488 8250 ft 255 kts 235°
2026-05-07 00:52 -38.34835 -61.77336 7982 ft 253 kts 236°
2026-05-07 00:52 -38.35820 -61.79149 7713 ft 252 kts 235°
2026-05-07 00:52 -38.36814 -61.80977 7449 ft 250 kts 235°
2026-05-07 00:52 -38.37798 -61.82790 7186 ft 248 kts 235°
2026-05-07 00:53 -38.38779 -61.84598 6928 ft 247 kts 235°
2026-05-07 00:53 -38.39754 -61.86395 6673 ft 246 kts 235°
2026-05-07 00:53 -38.40725 -61.88187 6417 ft 245 kts 234°
2026-05-07 00:53 -38.41691 -61.89970 6176 ft 244 kts 234°
2026-05-07 00:54 -38.42654 -61.91749 5909 ft 243 kts 234°
2026-05-07 00:54 -38.43613 -61.93521 5644 ft 242 kts 234°
2026-05-07 00:54 -38.44570 -61.95291 5380 ft 242 kts 234°
2026-05-07 00:54 -38.45522 -61.97052 5126 ft 241 kts 234°
2026-05-07 00:55 -38.46461 -61.98789 4878 ft 240 kts 234°
2026-05-07 00:55 -38.47404 -62.00537 4637 ft 238 kts 234°
2026-05-07 00:55 -38.48327 -62.02247 4578 ft 232 kts 234°
2026-05-07 00:55 -38.49249 -62.03956 4482 ft 235 kts 234°
2026-05-07 00:56 -38.50179 -62.05680 4385 ft 235 kts 234°
2026-05-07 00:56 -38.51092 -62.07373 4279 ft 228 kts 234°
2026-05-07 00:56 -38.51973 -62.09010 4186 ft 218 kts 234°
2026-05-07 00:56 -38.52797 -62.10541 4090 ft 202 kts 234°
2026-05-07 00:57 -38.53480 -62.12039 3917 ft 191 kts 250°
2026-05-07 00:57 -38.53824 -62.13634 3758 ft 183 kts 253°
2026-05-07 00:57 -38.54162 -62.15151 3553 ft 177 kts 253°
2026-05-07 00:57 -38.54500 -62.16638 3353 ft 171 kts 253°
2026-05-07 00:58 -38.54822 -62.18054 3334 ft 163 kts 253°
2026-05-07 00:58 -38.55150 -62.19469 3164 ft 174 kts 250°
2026-05-07 00:58 -38.55829 -62.20687 3079 ft 167 kts 215°
2026-05-07 00:58 -38.56942 -62.20955 2876 ft 169 kts 169°
2026-05-07 00:59 -38.59212 -62.20234 2546 ft 169 kts 168°
2026-05-07 00:59 -38.60358 -62.19845 2344 ft 170 kts 167°
2026-05-07 00:59 -38.61480 -62.19491 2133 ft 163 kts 169°
2026-05-07 01:00 -38.62532 -62.19135 1975 ft 152 kts 167°
2026-05-07 01:00 -38.63517 -62.18776 1771 ft 141 kts 167°
2026-05-07 01:00 -38.64442 -62.18432 1651 ft 137 kts 167°
2026-05-07 01:00 -38.65371 -62.18086 1459 ft 139 kts 167°
2026-05-07 01:01 -38.66299 -62.17740 1282 ft 139 kts 166°
2026-05-07 01:01 -38.67223 -62.17404 1123 ft 138 kts 165°
2026-05-07 01:01 -38.68146 -62.17085 971 ft 136 kts 162°
2026-05-07 01:01 -38.69059 -62.16753 864 ft 138 kts 161°
2026-05-07 01:02 -38.69966 -62.16378 713 ft 137 kts 159°
2026-05-07 01:02 -38.70886 -62.16031 472 ft 135 kts 160°
2026-05-07 01:02 -38.71756 -62.15707 292 ft 128 kts 159°
2026-05-07 01:02 -38.72540 -62.15412 256 ft 101 kts 163°
2026-05-07 01:03 -38.73064 -62.15219 253 ft 56 kts 163°
2026-05-07 01:03 -38.73301 -62.15130 255 ft 23 kts 163°
2026-05-07 01:03 -38.73451 -62.15074 258 ft 22 kts 164°
2026-05-07 01:03 -38.73598 -62.15020 257 ft 22 kts 163°
2026-05-07 01:04 -38.73709 -62.15003 258 ft 13 kts 196°
2026-05-07 01:04 -38.73752 -62.15092 257 ft 13 kts 270°
2026-05-07 01:04 -38.73752 -62.15154 256 ft 4 kts 270°
2026-05-07 01:04 -38.73752 -62.15168 256 ft 3 kts 271°
2026-05-07 01:05 -38.73733 -62.15217 256 ft 8 kts 328°
2026-05-07 01:05 -38.73679 -62.15241 256 ft 8 kts 343°
2026-05-07 01:05 -38.73615 -62.15265 256 ft 11 kts 343°
2026-05-07 01:05 -38.73536 -62.15294 256 ft 12 kts 344°
2026-05-07 01:06 -38.73458 -62.15323 256 ft 11 kts 344°
2026-05-07 01:06 -38.73383 -62.15351 256 ft 11 kts 344°
2026-05-07 01:06 -38.73309 -62.15377 256 ft 11 kts 344°
2026-05-07 01:06 -38.73237 -62.15404 256 ft 11 kts 344°
2026-05-07 01:07 -38.73168 -62.15429 256 ft 10 kts 345°
2026-05-07 01:07 -38.73090 -62.15457 255 ft 13 kts 344°
2026-05-07 01:07 -38.73005 -62.15499 256 ft 13 kts 319°
2026-05-07 01:07 -38.72991 -62.15606 256 ft 12 kts 266°
2026-05-07 01:08 -38.72993 -62.15714 256 ft 12 kts 268°
2026-05-07 01:08 -38.72991 -62.15820 256 ft 12 kts 291°
2026-05-07 01:08 -38.72921 -62.15847 256 ft 11 kts
2026-05-07 01:08 -38.72843 -62.15839 256 ft 11 kts
2026-05-07 01:09 -38.72768 -62.15830 256 ft 11 kts
2026-05-07 01:09 -38.72696 -62.15822 256 ft 10 kts
2026-05-07 01:09 -38.72626 -62.15814 256 ft 10 kts
2026-05-07 01:09 -38.72559 -62.15806 256 ft 10 kts
2026-05-07 01:10 -38.72493 -62.15798 256 ft 9 kts
2026-05-07 01:10 -38.72431 -62.15791 256 ft 9 kts
2026-05-07 01:10 -38.72369 -62.15795 256 ft 9 kts 346°
2026-05-07 01:10 -38.72288 -62.15825 256 ft 15 kts 343°
2026-05-07 01:11 -38.72187 -62.15863 256 ft 15 kts 343°
2026-05-07 01:11 -38.72092 -62.15898 256 ft 14 kts 344°
2026-05-07 01:11 -38.72002 -62.15932 256 ft 13 kts 345°
2026-05-07 01:11 -38.71915 -62.15964 256 ft 13 kts 344°
2026-05-07 01:12 -38.71826 -62.15997 256 ft 15 kts 344°
2026-05-07 01:12 -38.71714 -62.16039 256 ft 17 kts 343°
2026-05-07 01:12 -38.71653 -62.16106 256 ft 11 kts 280°
2026-05-07 01:12 -38.71643 -62.16198 256 ft 10 kts 277°
2026-05-07 01:13 -38.71641 -62.16264 256 ft 2 kts 259°
2026-05-07 01:13 -38.71643 -62.16280 256 ft 2 kts 261°
2026-05-07 01:13 -38.71643 -62.16301 256 ft 3 kts 275°
2026-05-07 01:13 -38.71642 -62.16307 256 ft 0 kts 276°
2026-05-07 01:16 -38.71642 -62.16306 256 ft 0 kts 276°